{"data":{"norad_id":48462,"epoch":"2026-09-19T21:59:30.378048Z","epoch_age_seconds":87708,"freshness":"FRESH","line1":"1 48462U 21040AL  26262.91632382  .00013332  00000+0  44042-3 0  9991","line2":"2 48462  53.1595   7.1759 0001178  70.6724 289.4405 15.31713507296266","mean_motion":15.31713507,"eccentricity":0.0001178,"inclination_deg":53.1595,"raan_deg":7.1759,"arg_perigee_deg":70.6724,"mean_anomaly_deg":289.4405,"bstar":0.00044042,"rev_number":29626,"period_min":94.012358931297,"perigee_km":469.89293889036,"apogee_km":471.50652482439,"semimajor_km":6848.8367318574,"source":"CELESTRAK","updated_at":"2026-09-20T09:00:39.127860Z"}}